Бриджуотер

Великобритания     51°07′33″N   2°59′58″W
темп.,
°C
ветер,
м/с
пор.,
м/с
влажн.,
%
обл.,
%
осадки,
мм/ч
давл.,
гПа
погр.,
м
18 мая, вт
вт1801:00+9з458826 0.1 1012273
04:00+9з588838 0.1 1013425
07:00+9зюз478994 0.2 1013395
10:00+11зюз457892 0.1 1014759
13:00+12зюз457870 1.1 1014611
16:00+12з578093 1.3 1014594
19:00+11з71083100 1.9 1015645
22:00+9зюз5785100 0.3 1016267
19 мая, ср
ср1901:00+9юз3588100 0.7 1016195
04:00+9з458895 0.4 1016195
07:00+10зсз58865 0.6 1017487
10:00+11зсз68780 0.1 1019802
13:00+12з99752 0.1 1020657
16:00+11з810750 0.0 1021680
19:00+11зсз69833 0.0 1021599
22:00+10з4788100 0.0 1022313
20 мая, чт
чт2001:00+8юз3489100 0.0 1022167
04:00+7ю3492100 0.0 1021104
07:00+9ююв4888100 0.0 1020255
10:00+10ю91490100 0.9 1017874
13:00+11ю132087100 2.1 10141224
16:00+12ююз111887100 0.4 10111139
19:00+13юз91482100 0.7 1009885
22:00+11юз91479100 0.3 10081109
21 мая, пт
пт2101:00+11юз10157597 0.4 10061249
04:00+10юз11187550 0.1 10041349
07:00+11юз12187362 0.1 10011459
10:00+12юз13197745 0.2 9991602
13:00+12юз13198097 0.8 9971507
16:00+13зюз12178186 0.9 9961410
19:00+11зюз111685100 1.7 995900
22:00+11зюз101487100 0.4 996843
22 мая, сб
сб2201:00+10сз91188100 1.4 996637
04:00+8зсз101381100 0.2 9991055
07:00+8зсз91179100 0.4 1001963
10:00+9зсз10127494 0.4 10031227
13:00+10з11136886 0.8 10051460
16:00+11з12136469 0.3 10061477
19:00+10з1113695 0.3 10081291
22:00+10з8116955 0.1 1009816